HJS-7A

导读 | 豆包AI

HJS-7A是中国于2025年9月16日发射的国产卫星。作为中国航天领域最新发射任务的组成部分,该卫星承载着推动我国空间技术发展的使命,将在轨开展相关空间科学试验,服务对地观测或通信等领域应用需求,进一步完善我国卫星星座布局,为国民经济建设、空间科学探索提供有力支撑,助力航天事业持续发展。

Basic Information
目录编号:
65617
目录名称:
HJS-7A
国际标识:
2025-209A
轨道中心:
EARTH
卫星名称:
HJS-7A
卫星全名:
HJS-7A
卫星状态:
在轨 (已飞行226 天)
发射日期:
2025-09-16 UTC
国别 :
中国 (CN)
星等 :
--
Orbit Information
数据来源 国际轨道数据 AOE轨道数据
星历时间 2026-04-30T21:08:00+0800
8小时前
查看轨道信息
2026-04-30T08:00:00+0800
22小时前
查看轨道信息
半长轴 7481.99km 7482.009km
偏心率 0.0000935 0.0000482
轨道倾角 49.998° 49.995°
近地点辐角 243.645° 234.806°
升交点赤经 173.839° 175.844°
平近点角 116.433° 0.923°
近地点 1103.153km 1103.511km
远地点 1104.553km 1104.233km
周期 107.346分钟 107.346分钟
每日圈数 13.414582 13.414531
Detailed Information
使用方式:
暂无
2D Orbit Map
3D Orbit Map
Orbit Altitude Analysis Chart
Orbit Inclination Analysis Chart
Orbit Comprehensive Analysis Chart
View Comprehensive Chart